| time (UTC) | temp F | wind direction | speed MPH | gust MPH | rain 1hr in | rain 24hr in | rain mn in | humidity % | barometer mb |
| 20260831132702 | 59 | 86 | 2.0 | 4.0 | 0.00 | 1.88 | 0.00 | 24 | 1020.4 |
| 20260831131802 | 58 | 86 | 2.0 | 4.0 | 0.00 | 1.88 | 0.00 | 24 | 1020.2 |
| 20260831130902 | 58 | 86 | 2.0 | 4.0 | 0.00 | 1.88 | 0.00 | 25 | 1020.2 |
| 20260831130002 | 58 | 86 | 1.0 | 4.0 | 0.00 | 1.88 | 0.00 | 25 | 1020.2 |
| 20260831125402 | 58 | 86 | 1.0 | 3.0 | 0.00 | 1.88 | 0.00 | 25 | 1020.1 |
| 20260831124502 | 58 | 86 | 1.0 | 4.0 | 0.00 | 1.88 | 0.00 | 25 | 1020.1 |
| 20260831123602 | 58 | 65 | 3.0 | 5.0 | 0.00 | 1.88 | 0.00 | 25 | 1020.1 |
| 20260831122702 | 58 | 54 | 2.0 | 5.0 | 0.00 | 1.88 | 0.00 | 25 | 1020.1 |
| 20260831121802 | 58 | 143 | 1.0 | 4.0 | 0.00 | 1.88 | 0.00 | 25 | 1020.1 |
| 20260831120902 | 58 | 144 | 1.0 | 5.0 | 0.00 | 1.88 | 0.00 | 25 | 1020.1 |
| 20260831120023 | 58 | 131 | 2.0 | 5.0 | 0.00 | 1.88 | 0.00 | 25 | 1020.2 |
| 20260831115402 | 58 | 126 | 2.0 | 4.0 | 0.00 | 1.88 | 0.00 | 25 | 1020.2 |
| 20260831114523 | 58 | 126 | 2.0 | 4.0 | 0.00 | 1.88 | 0.00 | 25 | 1020.3 |
| 20260831113602 | 58 | 126 | 1.0 | 4.0 | 0.00 | 1.88 | 0.00 | 26 | 1020.4 |
| 20260831112723 | 58 | 126 | 2.0 | 6.0 | 0.00 | 1.88 | 0.00 | 26 | 1020.4 |
| 20260831111802 | 58 | 122 | 4.0 | 6.0 | 0.00 | 1.88 | 0.00 | 26 | 1020.4 |
| 20260831110902 | 58 | 81 | 3.0 | 6.0 | 0.00 | 1.88 | 0.00 | 26 | 1020.4 |
| 20260831110023 | 58 | 68 | 5.0 | 7.0 | 0.00 | 1.88 | 0.00 | 26 | 1020.4 |
| 20260831105402 | 58 | 74 | 4.0 | 6.0 | 0.00 | 1.88 | 0.00 | 26 | 1020.3 |
| 20260831104502 | 59 | 74 | 3.0 | 5.0 | 0.00 | 1.88 | 0.00 | 26 | 1020.3 |
| 20260831103602 | 59 | 72 | 3.0 | 5.0 | 0.00 | 1.88 | 0.00 | 26 | 1020.3 |
| 20260831102702 | 59 | 72 | 2.0 | 5.0 | 0.00 | 1.88 | 0.00 | 26 | 1020.2 |
| 20260831101802 | 59 | 0 | 0.0 | 1.0 | 0.00 | 1.88 | 0.00 | 26 | 1020.1 |
| 20260831100902 | 59 | 72 | 0.0 | 2.0 | 0.00 | 1.88 | 0.00 | 27 | 1019.9 |
| 20260831100002 | 59 | 72 | 0.0 | 2.0 | 0.00 | 1.88 | 0.00 | 27 | 1019.7 |
| 20260831095402 | 59 | 72 | 0.0 | 3.0 | 0.00 | 1.88 | 0.00 | 27 | 1019.7 |
| 20260831094502 | 59 | 72 | 1.0 | 4.0 | 0.00 | 1.88 | 0.00 | 28 | 1019.7 |
| 20260831093602 | 59 | 72 | 1.0 | 5.0 | 0.00 | 1.88 | 0.00 | 28 | 1019.7 |
| 20260831092702 | 59 | 72 | 1.0 | 5.0 | 0.00 | 1.88 | 0.00 | 28 | 1019.7 |
| 20260831091802 | 59 | 72 | 2.0 | 5.0 | 0.00 | 1.88 | 0.00 | 28 | 1019.7 |
| 20260831090902 | 59 | 72 | 1.0 | 5.0 | 0.00 | 1.88 | 0.00 | 28 | 1019.6 |
| 20260831090023 | 59 | 72 | 3.0 | 5.0 | 0.00 | 1.88 | 0.00 | 28 | 1019.7 |
| 20260831085402 | 59 | 72 | 1.0 | 4.0 | 0.00 | 1.88 | 0.00 | 29 | 1019.7 |
| 20260831084502 | 60 | 72 | 1.0 | 2.0 | 0.00 | 1.89 | 0.00 | 29 | 1019.7 |
| 20260831083602 | 60 | 72 | 2.0 | 4.0 | 0.00 | 1.90 | 0.00 | 29 | 1019.7 |
| 20260831082702 | 60 | 72 | 1.0 | 4.0 | 0.00 | 1.90 | 0.00 | 29 | 1019.8 |
| 20260831081802 | 60 | 0 | 0.0 | 0.0 | 0.00 | 1.90 | 0.00 | 30 | 1019.8 |
| 20260831080902 | 60 | 0 | 0.0 | 2.0 | 0.00 | 1.90 | 0.00 | 31 | 1019.8 |
| 20260831080002 | 60 | 72 | 0.0 | 2.0 | 0.00 | 1.90 | 0.00 | 31 | 1020.0 |
| 20260831075402 | 61 | 72 | 1.0 | 4.0 | 0.00 | 1.90 | 0.00 | 31 | 1020.1 |
| 20260831074502 | 61 | 71 | 3.0 | 6.0 | 0.00 | 1.90 | 0.00 | 30 | 1020.1 |
| 20260831073602 | 61 | 66 | 4.0 | 6.0 | 0.00 | 1.90 | 0.00 | 30 | 1020.1 |
| 20260831072702 | 62 | 60 | 3.0 | 6.0 | 0.00 | 1.90 | 0.00 | 30 | 1020.2 |
| 20260831071802 | 62 | 60 | 2.0 | 4.0 | 0.00 | 1.90 | 0.00 | 30 | 1020.2 |
| 20260831070902 | 62 | 58 | 1.0 | 6.0 | 0.00 | 1.91 | 0.00 | 31 | 1020.2 |
| 20260831070002 | 62 | 57 | 3.0 | 6.0 | 0.00 | 1.91 | 0.00 | 32 | 1020.1 |
| 20260831065402 | 62 | 57 | 3.0 | 6.0 | 0.00 | 1.91 | 0.00 | 32 | 1020.1 |
| 20260831064502 | 62 | 57 | 1.0 | 4.0 | 0.00 | 1.91 | 0.00 | 32 | 1020.1 |
| 20260831063602 | 62 | 0 | 0.0 | 0.0 | 0.00 | 1.91 | 0.00 | 32 | 1020.1 |
| 20260831062702 | 62 | 0 | 0.0 | 0.0 | 0.00 | 1.91 | 0.00 | 33 | 1020.1 |
| 20260831061802 | 62 | 0 | 0.0 | 0.0 | 0.00 | 1.91 | 0.00 | 33 | 1020.0 |
| 20260831060902 | 62 | 0 | 0.0 | 0.0 | 0.00 | 1.91 | 0.00 | 33 | 1020.0 |
| 20260831060002 | 63 | 57 | 0.0 | 1.0 | 0.00 | 1.91 | 0.00 | 33 | 1020.1 |
| 20260831055402 | 64 | 57 | 1.0 | 4.0 | 0.00 | 1.91 | 1.91 | 33 | 1020.1 |
| 20260831054502 | 64 | 57 | 3.0 | 5.0 | 0.00 | 1.91 | 1.91 | 33 | 1020.1 |
| 20260831053602 | 64 | 57 | 3.0 | 5.0 | 0.00 | 1.91 | 1.91 | 33 | 1020.1 |
| 20260831052702 | 64 | 57 | 2.0 | 4.0 | 0.00 | 1.91 | 1.91 | 32 | 1020.2 |
| 20260831051803 | 64 | 57 | 2.0 | 5.0 | 0.00 | 1.91 | 1.91 | 32 | 1020.1 |
| 20260831050902 | 64 | 57 | 2.0 | 5.0 | 0.00 | 1.91 | 1.91 | 31 | 1020.2 |
| 20260831050002 | 64 | 63 | 3.0 | 5.0 | 0.00 | 1.92 | 1.91 | 31 | 1020.2 |
| 20260831045402 | 64 | 74 | 1.0 | 5.0 | 0.00 | 1.92 | 1.91 | 31 | 1020.2 |
| 20260831044502 | 64 | 87 | 1.0 | 4.0 | 0.00 | 1.94 | 1.91 | 31 | 1020.2 |
| 20260831043602 | 65 | 89 | 3.0 | 6.0 | 0.00 | 1.95 | 1.91 | 31 | 1020.0 |
| 20260831042702 | 65 | 104 | 4.0 | 6.0 | 0.00 | 1.96 | 1.91 | 31 | 1019.8 |
| 20260831041802 | 65 | 126 | 3.0 | 6.0 | 0.00 | 1.96 | 1.91 | 33 | 1019.8 |
| 20260831040902 | 66 | 139 | 1.0 | 5.0 | 0.00 | 1.96 | 1.91 | 34 | 1019.8 |
| 20260831040002 | 66 | 139 | 4.0 | 5.0 | 0.00 | 1.96 | 1.91 | 34 | 1019.6 |
| 20260831035402 | 66 | 139 | 4.0 | 5.0 | 0.00 | 1.96 | 1.91 | 34 | 1019.5 |
| 20260831034502 | 66 | 139 | 3.0 | 5.0 | 0.00 | 1.96 | 1.91 | 35 | 1019.4 |
| 20260831033602 | 66 | 133 | 3.0 | 4.0 | 0.00 | 1.97 | 1.91 | 35 | 1019.3 |
| 20260831032702 | 66 | 119 | 3.0 | 4.0 | 0.00 | 1.98 | 1.91 | 36 | 1019.4 |
| 20260831031802 | 67 | 100 | 2.0 | 5.0 | 0.00 | 1.98 | 1.91 | 36 | 1019.5 |
| 20260831030902 | 67 | 0 | 0.0 | 0.0 | 0.00 | 1.98 | 1.91 | 36 | 1019.4 |
| 20260831030002 | 67 | 0 | 0.0 | 1.0 | 0.00 | 1.98 | 1.91 | 37 | 1019.3 |
| 20260831025402 | 68 | 31 | 0.0 | 4.0 | 0.00 | 1.98 | 1.91 | 39 | 1019.2 |
| 20260831024502 | 68 | 31 | 0.0 | 6.0 | 0.00 | 1.98 | 1.91 | 40 | 1019.1 |
| 20260831023602 | 69 | 29 | 3.0 | 6.0 | 0.00 | 1.98 | 1.91 | 40 | 1019.1 |
| 20260831022723 | 69 | 60 | 3.0 | 6.0 | 0.00 | 1.98 | 1.91 | 39 | 1019.0 |
| 20260831021802 | 69 | 68 | 2.0 | 5.0 | 0.00 | 1.98 | 1.91 | 40 | 1018.9 |
| 20260831020902 | 70 | 77 | 3.0 | 5.0 | 0.00 | 1.98 | 1.91 | 41 | 1018.9 |
| 20260831020023 | 70 | 82 | 1.0 | 8.0 | 0.00 | 1.98 | 1.91 | 44 | 1018.7 |
| 20260831015402 | 71 | 75 | 3.0 | 8.0 | 0.00 | 1.98 | 1.91 | 45 | 1018.7 |
| 20260831014502 | 71 | 99 | 5.0 | 9.0 | 0.00 | 1.98 | 1.91 | 46 | 1018.6 |
| 20260831013602 | 72 | 95 | 6.0 | 12.0 | 0.00 | 1.98 | 1.91 | 46 | 1018.7 |
| 20260831012702 | 73 | 96 | 9.0 | 14.0 | 0.00 | 1.98 | 1.91 | 49 | 1018.5 |
| 20260831011823 | 75 | 96 | 7.0 | 14.0 | 0.00 | 2.04 | 1.91 | 51 | 1018.3 |
| 20260831010902 | 77 | 108 | 3.0 | 7.0 | 0.00 | 2.07 | 1.91 | 46 | 1018.5 |
| 20260831010002 | 77 | 124 | 4.0 | 8.0 | 0.00 | 2.07 | 1.91 | 46 | 1018.4 |
| 20260831005402 | 78 | 64 | 4.0 | 14.0 | 0.00 | 2.07 | 1.91 | 46 | 1018.3 |
| 20260831004502 | 78 | 317 | 9.0 | 14.0 | 0.00 | 2.07 | 1.91 | 45 | 1018.3 |
| 20260831003602 | 78 | 285 | 10.0 | 16.0 | 0.00 | 2.07 | 1.91 | 45 | 1018.3 |
| 20260831002702 | 79 | 288 | 9.0 | 15.0 | 0.00 | 2.07 | 1.91 | 45 | 1018.2 |
| 20260831001802 | 79 | 279 | 9.0 | 15.0 | 0.00 | 2.07 | 1.91 | 45 | 1018.3 |
| 20260831000902 | 79 | 292 | 8.0 | 15.0 | 0.00 | 2.07 | 1.91 | 45 | 1018.3 |
| 20260831000002 | 79 | 289 | 9.0 | 14.0 | 0.00 | 2.07 | 1.91 | 47 | 1018.1 |
| 20260830235402 | 78 | 274 | 10.0 | 15.0 | 0.00 | 2.07 | 1.91 | 46 | 1018.0 |
| 20260830234502 | 78 | 290 | 9.0 | 15.0 | 0.00 | 2.07 | 1.91 | 48 | 1018.0 |
| 20260830233602 | 77 | 302 | 9.0 | 14.0 | 0.00 | 2.07 | 1.91 | 48 | 1018.2 |
| 20260830232702 | 77 | 292 | 3.0 | 10.0 | 0.00 | 2.07 | 1.91 | 48 | 1018.3 |
| 20260830231802 | 76 | 164 | 3.0 | 7.0 | 0.01 | 2.07 | 1.91 | 47 | 1018.4 |
| 20260830230902 | 76 | 132 | 5.0 | 7.0 | 0.01 | 2.07 | 1.91 | 47 | 1018.4 |
| 20260830230002 | 76 | 184 | 3.0 | 6.0 | 0.01 | 2.07 | 1.91 | 46 | 1018.4 |
| 20260830225402 | 76 | 190 | 3.0 | 6.0 | 0.01 | 2.07 | 1.91 | 47 | 1018.5 |
| 20260830224502 | 76 | 191 | 3.0 | 7.0 | 0.01 | 2.07 | 1.91 | 48 | 1018.5 |
| 20260830223602 | 75 | 181 | 3.0 | 8.0 | 0.01 | 2.07 | 1.91 | 46 | 1018.4 |
| 20260830222702 | 75 | 159 | 4.0 | 8.0 | 0.01 | 2.07 | 1.91 | 48 | 1018.8 |
| 20260830221823 | 75 | 157 | 5.0 | 8.0 | 0.00 | 2.06 | 1.90 | 49 | 1018.7 |
| 20260830220923 | 76 | 136 | 2.0 | 5.0 | 0.00 | 2.06 | 1.90 | 50 | 1018.8 |
| 20260830220002 | 76 | 89 | 3.0 | 7.0 | 0.00 | 2.06 | 1.90 | 49 | 1018.6 |
| 20260830215402 | 76 | 94 | 4.0 | 9.0 | 0.00 | 2.06 | 1.90 | 48 | 1018.4 |
| 20260830214523 | 76 | 103 | 4.0 | 9.0 | 0.00 | 2.06 | 1.90 | 47 | 1018.5 |
| 20260830213602 | 77 | 109 | 6.0 | 13.0 | 0.00 | 2.06 | 1.90 | 46 | 1018.7 |
| 20260830212723 | 78 | 97 | 7.0 | 13.0 | 0.00 | 2.06 | 1.90 | 46 | 1018.9 |
| 20260830211802 | 79 | 92 | 9.0 | 15.0 | 0.00 | 2.06 | 1.90 | 45 | 1018.8 |
| 20260830210902 | 79 | 88 | 9.0 | 15.0 | 0.00 | 2.06 | 1.90 | 47 | 1018.9 |
| 20260830210002 | 80 | 94 | 8.0 | 15.0 | 0.00 | 2.06 | 1.90 | 47 | 1019.2 |
| 20260830205402 | 80 | 91 | 8.0 | 15.0 | 0.00 | 2.06 | 1.90 | 47 | 1019.3 |
| 20260830204502 | 79 | 86 | 9.0 | 15.0 | 0.00 | 2.06 | 1.90 | 47 | 1019.4 |
| 20260830203623 | 79 | 83 | 9.0 | 15.0 | 0.00 | 2.06 | 1.90 | 47 | 1019.4 |
| 20260830202702 | 78 | 87 | 8.0 | 14.0 | 0.00 | 2.06 | 1.90 | 47 | 1019.5 |
| 20260830201823 | 79 | 85 | 7.0 | 15.0 | 0.00 | 2.06 | 1.90 | 47 | 1019.7 |
| 20260830200923 | 78 | 95 | 8.0 | 13.0 | 0.00 | 2.06 | 1.90 | 47 | 1019.8 |
| 20260830200023 | 78 | 89 | 7.0 | 11.0 | 0.00 | 2.06 | 1.90 | 47 | 1019.7 |
| 20260830195402 | 78 | 85 | 8.0 | 13.0 | 0.00 | 2.06 | 1.90 | 46 | 1019.7 |
| 20260830194502 | 77 | 93 | 8.0 | 16.0 | 0.00 | 2.06 | 1.90 | 47 | 1019.9 |
| 20260830193602 | 77 | 92 | 7.0 | 16.0 | 0.55 | 2.06 | 1.90 | 46 | 1019.8 |
| 20260830192702 | 76 | 94 | 8.0 | 16.0 | 1.19 | 2.06 | 1.90 | 46 | 1020.1 |
| 20260830191802 | 76 | 109 | 6.0 | 13.0 | 1.19 | 2.06 | 1.90 | 46 | 1020.2 |
| 20260830190902 | 76 | 101 | 6.0 | 12.0 | 1.19 | 2.06 | 1.90 | 45 | 1020.3 |
| 20260830190002 | 75 | 98 | 7.0 | 12.0 | 1.19 | 2.06 | 1.90 | 46 | 1020.4 |
| 20260830185402 | 75 | 105 | 7.0 | 12.0 | 1.19 | 2.06 | 1.90 | 45 | 1020.4 |
| 20260830184502 | 75 | 113 | 5.0 | 10.0 | 1.19 | 2.06 | 1.90 | 44 | 1020.6 |
| 20260830183602 | 74 | 116 | 6.0 | 11.0 | 0.64 | 1.51 | 1.35 | 45 | 1020.6 |
| 20260830182702 | 74 | 118 | 7.0 | 11.0 | 0.01 | 0.87 | 0.71 | 45 | 1020.6 |
| 20260830181802 | 73 | 112 | 7.0 | 12.0 | 0.19 | 0.87 | 0.71 | 45 | 1020.6 |
| 20260830180902 | 73 | 106 | 6.0 | 12.0 | 0.19 | 0.87 | 0.71 | 46 | 1020.6 |
| 20260830180002 | 74 | 107 | 6.0 | 12.0 | 0.19 | 0.87 | 0.71 | 44 | 1020.6 |
| 20260830175402 | 74 | 101 | 6.0 | 12.0 | 0.19 | 0.87 | 0.71 | 42 | 1020.6 |
| 20260830174502 | 73 | 98 | 5.0 | 10.0 | 0.19 | 0.87 | 0.71 | 42 | 1020.6 |
| 20260830173602 | 72 | 107 | 5.0 | 9.0 | 0.19 | 0.87 | 0.71 | 40 | 1020.6 |
| 20260830172702 | 71 | 97 | 5.0 | 9.0 | 0.18 | 0.86 | 0.70 | 35 | 1020.6 |
| 20260830171802 | 70 | 113 | 5.0 | 9.0 | 0.00 | 0.68 | 0.52 | 31 | 1020.7 |
| 20260830170902 | 70 | 109 | 5.0 | 9.0 | 0.00 | 0.68 | 0.52 | 29 | 1020.6 |
| 20260830170002 | 70 | 107 | 5.0 | 7.0 | 0.00 | 0.68 | 0.52 | 26 | 1020.7 |
| 20260830165423 | 69 | 95 | 3.0 | 7.0 | 0.00 | 0.68 | 0.52 | 25 | 1020.7 |
| 20260830164523 | 68 | 122 | 3.0 | 7.0 | 0.00 | 0.68 | 0.52 | 23 | 1020.6 |
| 20260830163602 | 68 | 128 | 3.0 | 7.0 | 0.00 | 0.68 | 0.52 | 22 | 1020.6 |
| 20260830162702 | 67 | 132 | 4.0 | 6.0 | 0.00 | 0.68 | 0.52 | 21 | 1020.5 |
| 20260830161802 | 67 | 142 | 3.0 | 7.0 | 0.00 | 0.68 | 0.52 | 20 | 1020.5 |
| 20260830160902 | 66 | 126 | 4.0 | 7.0 | 0.00 | 0.68 | 0.52 | 21 | 1020.5 |
| 20260830160002 | 66 | 120 | 2.0 | 5.0 | 0.18 | 0.68 | 0.52 | 20 | 1020.5 |
| 20260830155402 | 66 | 121 | 2.0 | 5.0 | 0.39 | 0.68 | 0.52 | 21 | 1020.5 |
| 20260830154502 | 65 | 121 | 2.0 | 7.0 | 0.41 | 0.68 | 0.52 | 21 | 1020.4 |
| 20260830153602 | 65 | 123 | 3.0 | 7.0 | 0.43 | 0.68 | 0.52 | 21 | 1020.4 |
| 20260830152702 | 65 | 125 | 5.0 | 7.0 | 0.43 | 0.68 | 0.52 | 21 | 1020.3 |
| 20260830151802 | 65 | 141 | 3.0 | 6.0 | 0.43 | 0.68 | 0.52 | 21 | 1020.2 |
| 20260830150902 | 65 | 148 | 2.0 | 6.0 | 0.43 | 0.68 | 0.52 | 21 | 1020.3 |
| 20260830150023 | 65 | 141 | 4.0 | 7.0 | 0.25 | 0.50 | 0.36 | 22 | 1020.3 |
| 20260830145402 | 64 | 135 | 5.0 | 7.0 | 0.04 | 0.29 | 0.13 | 22 | 1020.1 |
| 20260830144502 | 63 | 121 | 3.0 | 6.0 | 0.02 | 0.27 | 0.11 | 23 | 1020.1 |
| 20260830143602 | 62 | 92 | 3.0 | 6.0 | 0.00 | 0.25 | 0.09 | 23 | 1020.1 |
| 20260830142723 | 62 | 89 | 1.0 | 6.0 | 0.06 | 0.25 | 0.09 | 23 | 1020.0 |
| 20260830141802 | 62 | 56 | 4.0 | 8.0 | 0.06 | 0.25 | 0.09 | 23 | 1020.1 |
| 20260830140923 | 62 | 47 | 5.0 | 8.0 | 0.06 | 0.25 | 0.09 | 23 | 1020.1 |
| 20260830140002 | 62 | 87 | 3.0 | 6.0 | 0.06 | 0.25 | 0.09 | 23 | 1020.0 |
| 20260830135402 | 62 | 123 | 1.0 | 4.0 | 0.06 | 0.25 | 0.09 | 23 | 1020.1 |
| 20260830134502 | 62 | 124 | 1.0 | 7.0 | 0.06 | 0.25 | 0.09 | 23 | 1019.8 |
| 20260830133602 | 62 | 136 | 2.0 | 7.0 | 0.06 | 0.25 | 0.09 | 23 | 1019.8 |